"Pseudo-MPEC" for P10IoDs

Created 2018 Jul 18 20:18:06 UT using Find_Orb

Click here for an explanation of pseudo-MPECs

 
 Astrometry: 
     P10IoDs  C2018 07 11jaAstrometrycmT'#h2CegAq$^yRe]ct6Y/kYSswcd9Wm.56tX!SF51
     P10IoDs  C2018 07 11M@kLMWc6QToaE):ZWredacted;\M8:uO1taf6o91`@^q)NI]wd\XF51
     P10IoDs  C2018 07 11U;57h'+='4Nv;lE.#+N;W2iZIgD`G;bksee,+M8HTLwVl#G-)vd;F51
     P10IoDs  C2018 07 11eDdRBJx?CLGpJKDG[!m^HG?/P;skZq0g94A7T][Z_QR/v08NEOCPF51

Station data:
(F51) Pan-STARRS 1, Haleakala  (N20.707235 W156.255910)  US/Hawaii.
   Observers N. Primak, A. Schultz, S. Watters, J. Thiel, T. Goggia. Measurer
   PS1 Science Consortium. 1.8-m Ritchey-Chrétien + CCD.

Orbital elements:  P10IoDs
   Perihelion 2018 Dec 16.019720 +/- 753 TT =  0:28:23 (JD 2458468.519720)
Epoch 2018 Jul 12.0 TT = JDT 2458311.5   Earth MOID: 0.0045   Ve: 0.0453
M 180.62079 +/- 120                 (J2000 ecliptic)          AutoNEOCP
n   1.14239921 +/- 0.563            Peri.  335.57438 +/- 80
a   0.90626968 +/- 0.298            Node   137.26772 +/- 110
e   0.1675826 +/- 0.186             Incl.    0.95409 +/- 60
P   0.86/315.12d           H 24.9   G  0.15   U 12.4  SR
q 0.75439460 +/- 2.32    Q 1.05814476 +/- 47.6
From 4 observations 2018 July 11 (43.8 min); mean residual 0".20
Residuals in arcseconds: 
180711 F51  .22+  .00     180711 F51  .39-  .00     
180711 F51  .13-  .00     180711 F51  .30+  .00     

Ephemerides (geocentric):
Date (UTC) HH   RA              Dec         delta   r     elong  mag " sig PA
---- -- -- --  -------------   -----------  ------ ------ -----  --- ---- ---
2018 07 18 20  23 19 54.747   +00 40 16.84  .06876 1.0569 124.7 21.1  25d   1
2018 07 18 21  23 19 54.315   +00 40 02.92  .06868 1.0569 124.8 21.1  25d   1
2018 07 18 22  23 19 53.873   +00 39 48.90  .06859 1.0569 124.8 21.1  25d   1
2018 07 18 23  23 19 53.422   +00 39 34.79  .06851 1.0569 124.8 21.1  25d   1
2018 07 19 00  23 19 52.962   +00 39 20.59  .06843 1.0569 124.9 21.1  25d   1
2018 07 19 01  23 19 52.494   +00 39 06.28  .06834 1.0569 124.9 21.1  25d   1
2018 07 19 02  23 19 52.016   +00 38 51.89  .06826 1.0569 125.0 21.1  25d   1
2018 07 19 03  23 19 51.529   +00 38 37.39  .06817 1.0568 125.0 21.1  25d   1
2018 07 19 04  23 19 51.033   +00 38 22.80  .06809 1.0568 125.1 21.1  25d   1
2018 07 19 05  23 19 50.528   +00 38 08.12  .06801 1.0568 125.1 21.1  25d   1
2018 07 19 06  23 19 50.013   +00 37 53.34  .06792 1.0568 125.1 21.1  25d   1
2018 07 19 07  23 19 49.490   +00 37 38.46  .06784 1.0568 125.2 21.1  25d   1
2018 07 19 08  23 19 48.957   +00 37 23.48  .06776 1.0568 125.2 21.1  25d   1
2018 07 19 09  23 19 48.416   +00 37 08.40  .06767 1.0568 125.3 21.1  25d   1
2018 07 19 10  23 19 47.865   +00 36 53.23  .06759 1.0567 125.3 21.1  25d   1
2018 07 19 11  23 19 47.304   +00 36 37.96  .06750 1.0567 125.4 21.1  25d   1
2018 07 19 12  23 19 46.735   +00 36 22.59  .06742 1.0567 125.4 21.1  25d   1
2018 07 19 13  23 19 46.156   +00 36 07.13  .06734 1.0567 125.4 21.1  25d   1
2018 07 19 14  23 19 45.568   +00 35 51.56  .06725 1.0567 125.5 21.1  25d   0
2018 07 19 15  23 19 44.970   +00 35 35.89  .06717 1.0567 125.5 21.1  25d   0
2018 07 19 16  23 19 44.363   +00 35 20.13  .06708 1.0567 125.6 21.1  25d   0
2018 07 19 17  23 19 43.747   +00 35 04.26  .06700 1.0566 125.6 21.1  25d   0
2018 07 19 18  23 19 43.121   +00 34 48.30  .06692 1.0566 125.7 21.1  25d   0
2018 07 19 19  23 19 42.486   +00 34 32.23  .06683 1.0566 125.7 21.1  25d   0
2018 07 19 20  23 19 41.841   +00 34 16.06  .06675 1.0566 125.8 21.1  25d   0
2018 07 19 21  23 19 41.187   +00 33 59.80  .06667 1.0566 125.8 21.0  25d   0
2018 07 19 22  23 19 40.523   +00 33 43.43  .06658 1.0566 125.8 21.0  25d   0
2018 07 19 23  23 19 39.850   +00 33 26.96  .06650 1.0565 125.9 21.0  25d   0
2018 07 20 00  23 19 39.167   +00 33 10.38  .06641 1.0565 125.9 21.0  25d   0
2018 07 20 01  23 19 38.475   +00 32 53.71  .06633 1.0565 126.0 21.0  25d   0
2018 07 20 02  23 19 37.773   +00 32 36.93  .06625 1.0565 126.0 21.0  25d   0
2018 07 20 03  23 19 37.061   +00 32 20.05  .06616 1.0565 126.1 21.0  25d   0
2018 07 20 04  23 19 36.340   +00 32 03.06  .06608 1.0565 126.1 21.0  25d   0
2018 07 20 05  23 19 35.609   +00 31 45.98  .06600 1.0564 126.2 21.0  25d   0
2018 07 20 06  23 19 34.868   +00 31 28.78  .06591 1.0564 126.2 21.0  25d   0
2018 07 20 07  23 19 34.118   +00 31 11.49  .06583 1.0564 126.2 21.0  25d   0
2018 07 20 08  23 19 33.357   +00 30 54.09  .06575 1.0564 126.3 21.0  25d   0
2018 07 20 09  23 19 32.587   +00 30 36.58  .06566 1.0564 126.3 21.0  25d   0
2018 07 20 10  23 19 31.807   +00 30 18.97  .06558 1.0564 126.4 21.0  26d   0
2018 07 20 11  23 19 31.017   +00 30 01.25  .06549 1.0563 126.4 21.0  26d   0
2018 07 20 12  23 19 30.218   +00 29 43.43  .06541 1.0563 126.5 21.0  26d   0
2018 07 20 13  23 19 29.408   +00 29 25.50  .06533 1.0563 126.5 21.0  26d   0
2018 07 20 14  23 19 28.589   +00 29 07.47  .06524 1.0563 126.6 21.0  26d   0
2018 07 20 15  23 19 27.759   +00 28 49.33  .06516 1.0563 126.6 21.0  26d   0
2018 07 20 16  23 19 26.920   +00 28 31.08  .06508 1.0563 126.6 21.0  26d   0
2018 07 20 17  23 19 26.070   +00 28 12.72  .06499 1.0562 126.7 21.0  26d   0
2018 07 20 18  23 19 25.210   +00 27 54.26  .06491 1.0562 126.7 21.0  26d   0
2018 07 20 19  23 19 24.341   +00 27 35.69  .06483 1.0562 126.8 21.0  26d   0